Location: Hauppauge
(40.8260°N, 73.2030°W)
Time: 12:39:59
(UTC-04:00)

Daily predictions for brighter satellites

Satellite Brightness Start Highest point End
(mag) Time Altitude Azimuth Time Altitude Azimuth Time Altitude Azimuth
Timation 2 Rocket 4.4 20:39:29 10° NNW 20:45:47 71° WSW 20:52:22 10° SSE
Lacrosse 5 rocket 1.5 20:43:05 10° SSW 20:46:21 35° SE 20:49:41 10° ENE
Cosmos 1346 Rocket 3.0 20:44:34 10° N 20:48:29 56° E 20:52:25 10° SSE
Shenzhou-11 Module 2.5 20:47:39 10° W 20:50:38 49° SSW 20:53:37 10° SE
Cosmos 1816 Rocket 4.5 20:44:48 10° S 20:50:58 81° E 20:57:07 10° N
ATLAS 5 CENTAUR R/B 3.6 20:48:20 10° NNW 20:53:27 30° NE 20:58:58 10° ESE
YAOGAN 6 3.1 20:50:25 10° SSE 20:53:58 45° ENE 20:57:31 10° N
Cosmos 2346 Rocket 4.5 20:48:17 10° S 20:54:15 66° E 21:00:15 10° NNE
Cosmos 1933 4.2 20:50:43 10° NNW 20:54:38 53° W 20:58:32 10° S
Cosmos 1939 Rocket 2.9 20:50:56 10° SSE 20:55:03 74° ENE 20:59:11 10° N
Cosmos 1937 Rocket 4.0 20:56:45 10° SSW 21:01:50 64° WNW 21:06:57 10° NNE
Okean 1-7 3.8 20:57:51 10° N 21:01:56 35° ENE 21:05:52 10° SE
H-2A ROCKET BODY 3.4 21:00:39 10° SSW 21:02:34 15° SSE 21:05:25 11° SE
Aureole 3 3.7 20:59:59 10° SSE 21:02:36 25° E 21:05:08 10° NNE
GPS 2-04 Rocket1 3.2 21:01:14 10° WSW 21:04:42 36° S 21:07:35 13° ESE
H-2A R/B 3.7 21:01:45 10° ESE 21:05:32 20° ENE 21:09:17 10° NNE
ARGOS 4.1 21:06:05 11° SE 21:10:30 32° ENE 21:15:12 10° N
DNEPR-1 R/B 4.2 21:07:45 10° S 21:12:48 41° ESE 21:17:08 10° NE
Meteor 1-29 3.0 21:10:19 10° NNE 21:13:47 58° ESE 21:17:12 10° S
Cosmos 1703 Rocket 3.5 21:10:11 10° N 21:14:37 74° E 21:18:58 10° SSE
Meteor 2-3 Rocket 4.0 21:13:39 10° SSW 21:19:21 73° W 21:25:02 10° N
Cosmos 1408 3.1 21:18:02 11° SSE 21:21:17 40° E 21:24:48 10° NNE
Milstar 3 4.3 21:13:44 10° SW 21:24:14 31° S 21:29:45 15° ESE
Cosmos 1733 Rocket 4.4 21:24:43 17° ESE 21:26:22 21° E 21:29:35 10° NE
Cosmos 1782 3.0 21:22:26 10° N 21:26:22 52° E 21:29:11 17° SSE
ERS-1 Rocket 3.0 21:23:31 13° SSE 21:27:59 66° ENE 21:32:59 10° N
Cosmos 1825 2.3 21:28:21 13° SSE 21:31:31 51° E 21:35:13 10° NNE
Cosmos 2344 3.9 21:24:25 10° S 21:31:37 45° ESE 21:39:17 10° NE
Cosmos 1869 Rocket 3.5 21:28:45 10° S 21:33:04 87° W 21:37:28 10° N
BREEZE-M DEB (TANK) 3.8 21:32:34 10° NW 21:35:32 45° NNE 21:45:41 10° ESE
Cosmos 1048 Rocket 4.2 21:30:56 10° NNW 21:36:11 57° ENE 21:39:39 21° SE
Helios 1B rocket 3.1 21:33:03 10° N 21:37:05 56° WNW 21:41:05 10° SSW
Cosmos 2084 3.4 21:35:01 10° NW 21:38:49 65° WSW 21:41:16 21° SSE
USA 215 3.4 21:35:07 17° ESE 21:40:21 69° NE 21:46:54 10° NW
MetOp-A 4.1 21:40:52 17° SSE 21:45:04 80° ENE 21:50:26 10° NNW
Cosmos 1862 3.7 21:43:53 25° SSE 21:45:44 42° E 21:49:31 10° NNE
Lacrosse 4 Rocket 2.1 21:42:58 10° NNW 21:47:19 46° ENE 21:49:28 26° ESE
Cosmos 2221 Rocket 3.9 21:44:45 10° NNW 21:49:10 67° W 21:52:52 14° S
ISS -2.1 21:50:01 10° W 21:53:02 35° NNW 21:56:05 10° NE
Cosmos 1943 Rocket 2.1 21:47:31 10° SSW 21:53:07 85° ESE 21:58:42 10° NNE
Terra 3.2 21:54:15 20° E 21:55:56 24° ENE 21:59:43 10° NNE
deb Kosmos-1763 4.0 21:56:30 10° NNW 22:00:18 87° WSW 22:01:44 36° SSE
Tiangong 2 2.9 22:00:49 10° W 22:03:17 20° SSW 22:03:23 20° SSW
Cosmos 1674 Rocket 4.2 21:59:24 10° N 22:03:26 37° ENE 22:04:28 32° ESE
SPOT 1/Viking Rocket 3.7 22:00:52 28° SE 22:03:29 60° ENE 22:08:36 10° N
CENTAUR R/B 2.7 21:59:44 10° SW 22:05:44 76° NW 22:12:37 10° NNE
Cosmos 372 Rocket 4.1 22:00:57 10° SSW 22:06:04 76° WNW 22:11:12 10° NNE
Cosmos 1340 2.7 22:03:28 10° NNW 22:07:16 78° W 22:08:45 35° S
Cosmos 1092 Rocket 4.4 22:07:21 28° SE 22:10:00 44° E 22:15:46 10° NNE
BREEZE M DEB (TANK) 4.1 21:57:19 10° WSW 22:10:09 80° NNW 22:13:53 10° NE
Cosmos 1437 4.3 22:08:04 10° NNE 22:10:20 23° ENE 22:10:20 23° ENE
Nadezhda 4 Rocket 4.0 22:06:49 23° SSE 22:10:49 65° E 22:16:55 10° NNE
SPOT 5 3.1 22:08:10 26° SSE 22:11:17 87° WSW 22:16:37 10° NNW
COSMOS 2455 4.3 22:05:48 10° WSW 22:11:24 39° NW 22:17:02 10° NNE
Cosmos 1269 Rocket 4.1 22:06:54 10° NNW 22:12:11 76° WSW 22:14:55 29° S
Cosmos 2369 Rocket 3.7 22:09:43 10° SW 22:14:57 38° WNW 22:20:15 10° N
GEOS 3 Rocket 4.4 22:13:40 25° E 22:16:10 42° NE 22:21:05 10° NNW
Cosmos 1125 Rocket 4.3 22:11:34 10° SW 22:16:41 51° WNW 22:21:47 10° N
H-2A R/B 3.5 22:16:52 21° ENE 22:17:20 21° ENE 22:20:28 10° NNE
YAOGAN 11 4.2 22:16:37 33° S 22:18:39 75° WSW 22:23:12 10° NNW
Cosmos 1833 4.2 22:15:40 10° NNW 22:21:29 88° WSW 22:24:00 35° SSE
Cosmos 1606 4.2 22:18:15 10° NNW 22:21:39 32° W 22:23:47 18° SW
Lacrosse 5 rocket 3.4 22:22:33 10° W 22:25:35 25° NW 22:28:42 10° NNE
Okean 3 4.0 22:23:06 10° N 22:27:02 40° ENE 22:27:17 39° E
IGS 5A 3.9 22:29:14 43° E 22:29:39 45° ENE 22:33:37 10° N
Cosmos 2297 Rocket 4.3 22:30:36 10° NNE 22:33:40 15° NE 22:36:27 11° ENE
ATLAS 5 CENTAUR R/B 2.7 22:32:33 10° NW 22:38:33 61° WSW 22:41:08 36° S
Cosmos 1908 Rocket 3.6 22:38:32 56° ESE 22:38:46 57° E 22:43:09 10° NNE
Meteor 1-27 Rocket 4.2 22:34:48 10° NNW 22:40:24 55° W 22:43:17 27° SSW
Cosmos 1867 3.7 22:35:09 10° NNW 22:40:35 62° NE 22:42:05 45° ESE
H-2A R/B 2.6 22:42:10 32° SSW 22:44:30 57° W 22:49:46 10° NNW
Okean 2 Rocket 4.5 22:48:28 25° ENE 22:48:28 25° ENE 22:51:17 10° NNE
Cosmos 494 Rocket 3.9 22:43:05 10° NNW 22:48:20 82° ENE 22:49:23 58° SSE
Intercosmos 25 Rocket 4.4 22:41:55 10° NNW 22:49:06 66° W 22:50:46 40° SSW
ARGOS 4.5 22:47:36 19° SSW 22:50:40 33° W 22:55:29 10° NNW
Cosmos 1656 Rocket 3.8 22:48:00 20° SSW 22:51:47 72° WNW 22:57:19 10° NNE
Cosmos 2195 Rocket 4.4 22:58:08 47° SSE 23:00:04 76° E 23:06:24 10° N
deb Chang Zheng 4 4.0 22:56:19 10° NNE 23:00:04 49° ENE 23:00:04 49° ENE
Meteor 1-20 Rocket 4.4 23:01:57 51° ESE 23:02:28 53° E 23:08:00 10° NNE
CZ-4B R/B 3.9 23:00:55 10° NNE 23:05:10 45° E 23:05:10 45° E
Cosmos 1782 Rocket 3.8 23:06:36 60° ENE 23:06:36 60° ENE 23:10:28 10° NNE
Meteor 1-25 Rocket 4.2 23:07:15 59° SE 23:08:02 66° E 23:13:50 10° NNE
Sich 1 Rocket 3.7 23:12:21 63° WSW 23:12:38 65° W 23:17:03 10° N
Cosmos 1655 Rocket 3.9 23:13:17 57° SE 23:14:17 65° E 23:20:27 10° NNE
USA 215 4.1 23:22:28 32° SSW 23:23:37 34° SW 23:29:28 10° WNW
Cosmos 2227 Rocket 3.0 23:18:36 10° N 23:23:54 39° ENE 23:24:44 37° E
Meteor 1-14 Rocket 4.4 23:22:21 49° SW 23:23:56 71° W 23:29:46 10° N
CZ-2C R/B 3.8 23:19:32 10° NE 23:22:59 27° ENE 23:22:59 27° ENE
Lacrosse 4 Rocket 3.6 23:22:41 10° WNW 23:25:39 18° WSW 23:25:48 18° WSW
Cosmos 1975 Rocket 3.3 23:24:04 10° N 23:28:04 70° NNW 23:28:04 70° NNW
Cosmos 2026 Rocket 4.0 23:28:05 51° SSW 23:29:40 74° W 23:35:57 10° N
Cosmos 2219 3.2 23:24:06 10° NNW 23:29:49 67° WSW 23:30:23 63° SW
ISS -0.5 23:28:29 10° NW 23:30:14 14° N 23:32:00 10° NNE
ALOS 2 4.3 23:32:47 24° NE 23:32:47 24° NE 23:35:49 10° NNE
Terra 2.8 23:33:08 36° WSW 23:33:28 36° W 23:37:52 10° NNW
Cosmos 1812 3.8 23:30:28 10° NNW 23:33:20 42° NW 23:33:20 42° NW
ATLAS CENTAUR R/B 2.3 23:36:09 43° NNW 23:36:09 43° NNW 23:39:15 10° NNE
BREEZE-M DEB (TANK) 3.4 23:36:03 58° SW 23:37:08 83° SE 23:51:38 10° ENE
Cosmos 2251 Rocket 4.3 23:35:51 10° NW 23:40:43 40° WSW 23:40:56 40° WSW
Meteor 1-11 Rocket 4.4 23:43:43 45° E 23:43:43 45° E 23:49:05 10° NNE
Gbstr 26 Del rocket 4.1 23:40:34 10° NW 23:44:06 37° N 23:44:06 37° N
Cosmos 1417 Rocket 4.4 23:39:02 10° N 23:45:17 76° W 23:46:11 65° SSW
Cosmos 2369 4.2 23:46:56 47° ENE 23:46:56 47° ENE 23:51:34 10° NNE
ARGOS Delta rocket 4.1 23:42:13 10° N 23:46:12 58° NW 23:46:12 58° NW
Meteor 2-11 Rocket 4.3 23:41:42 10° N 23:47:50 77° W 23:48:29 69° SSW
CZ-4C R/B 4.3 23:50:08 50° NW 23:50:08 50° NW 23:53:18 10° NNW
Cosmos 1980 Rocket 4.3 23:51:05 14° ENE 23:51:05 14° ENE 23:52:31 10° ENE
Meteor 2-4 Rocket 4.4 23:46:23 10° N 23:51:11 40° ENE 23:51:11 40° ENE
S3M 3.8 23:46:17 10° N 23:52:26 86° W 23:52:56 77° S
H-2A R/B 3.6 23:53:59 27° WNW 23:53:59 27° WNW 23:56:49 10° NW
